timestamp,surface_pressure_avg,surface_temp_avg,battery_voltage,lat,long
2021-09-27 00:09:01+00:00,271.5747,14.38,12.73,47.84626,-54.09684
2021-09-27 00:19:01+00:00,274.6863,14.38,12.73,47.84626,-54.09684
2021-09-27 00:29:01+00:00,275.4331,14.38,12.73,47.84626,-54.09684
2021-09-27 00:39:01+00:00,279.5914,14.37,12.73,47.84626,-54.09684
2021-09-27 00:49:01+00:00,283.8797,14.37,12.73,47.84626,-54.09684
2021-09-27 00:59:01+00:00,287.673,14.37,12.73,47.84626,-54.09684
2021-09-27 01:09:01+00:00,290.6064,14.37,12.73,47.84626,-54.09684
2021-09-27 01:19:01+00:00,297.4547,14.37,12.73,47.84626,-54.09684
2021-09-27 01:29:01+00:00,301.9114,14.37,12.73,47.84626,-54.09684
2021-09-27 01:39:01+00:00,303.798,14.37,12.73,47.84626,-54.09684
2021-09-27 01:49:01+00:00,305.338,14.37,12.73,47.84626,-54.09684
2021-09-27 01:59:01+00:00,311.1547,14.36,12.73,47.84626,-54.09684
2021-09-27 02:09:01+00:00,314.1429,14.34,12.73,47.84626,-54.09684
2021-09-27 02:19:01+00:00,315.783,14.32,12.73,47.84626,-54.09684
2021-09-27 02:29:01+00:00,317.0981,14.33,12.73,47.84626,-54.09684
2021-09-27 02:39:01+00:00,321.6495,14.3,12.73,47.84626,-54.09684
2021-09-27 02:49:01+00:00,323.8782,14.3,12.73,47.84626,-54.09684
2021-09-27 02:59:01+00:00,326.6146,14.3,12.73,47.84626,-54.09684
2021-09-27 03:09:01+00:00,328.0479,14.3,12.73,47.84626,-54.09684
2021-09-27 03:19:00+00:00,329.3079,14.3,12.73,47.84626,-54.09684
2021-09-27 03:29:00+00:00,328.5096,14.3,12.73,47.84626,-54.09684
2021-09-27 03:39:00+00:00,327.623,14.3,12.73,47.84626,-54.09684
2021-09-27 03:49:00+00:00,322.008,14.3,12.73,47.84626,-54.09684
2021-09-27 03:59:00+00:00,321.3146,14.3,12.73,47.84626,-54.09684
2021-09-27 04:09:00+00:00,323.7697,14.3,12.73,47.84626,-54.09684
2021-09-27 04:19:00+00:00,322.4479,14.3,12.73,47.84626,-54.09684
2021-09-27 04:29:00+00:00,316.8746,14.3,12.73,47.84626,-54.09684
2021-09-27 04:39:00+00:00,315.3146,14.3,12.73,47.84626,-54.09684
2021-09-27 04:49:00+00:00,315.143,14.3,12.73,47.84626,-54.09684
2021-09-27 04:59:00+00:00,310.9047,14.3,12.73,47.84626,-54.09684
2021-09-27 05:09:00+00:00,305.9231,14.3,12.73,47.84626,-54.09684
2021-09-27 05:19:00+00:00,306.5114,14.3,12.65,47.84626,-54.09684
2021-09-27 05:29:00+00:00,304.6563,14.3,12.65,47.84626,-54.09684
2021-09-27 05:39:00+00:00,300.2581,14.3,12.65,47.84626,-54.09684
2021-09-27 05:49:00+00:00,294.6463,14.3,12.65,47.84626,-54.09684
2021-09-27 05:59:00+00:00,292.1514,14.3,12.65,47.84626,-54.09684
2021-09-27 06:09:00+00:00,288.2264,14.3,12.65,47.84626,-54.09684
2021-09-27 06:19:01+00:00,282.3364,14.3,12.65,47.84626,-54.09684
2021-09-27 06:29:01+00:00,276.5281,14.3,12.65,47.84626,-54.09684
2021-09-27 06:39:01+00:00,272.2864,14.3,12.65,47.84626,-54.09684
2021-09-27 06:49:01+00:00,268.8064,14.3,12.65,47.84626,-54.09684
2021-09-27 06:59:01+00:00,263.6664,14.3,12.65,47.84626,-54.09684
2021-09-27 07:09:01+00:00,254.5298,14.3,12.65,47.84626,-54.09684
2021-09-27 07:19:01+00:00,247.0097,14.3,12.65,47.84626,-54.09684
2021-09-27 07:29:01+00:00,241.5497,14.3,12.65,47.84626,-54.09684
2021-09-27 07:39:01+00:00,237.5797,14.3,12.65,47.84626,-54.09684
2021-09-27 07:49:01+00:00,233.0681,14.3,12.65,47.84626,-54.09684
2021-09-27 07:59:01+00:00,226.6915,14.3,12.65,47.84626,-54.09684
2021-09-27 08:09:01+00:00,222.9648,14.3,12.65,47.84626,-54.09684
2021-09-27 08:19:01+00:00,220.3498,14.3,12.65,47.84626,-54.09684
2021-09-27 08:29:01+00:00,217.2564,14.3,12.65,47.84626,-54.09684
2021-09-27 08:39:01+00:00,216.9898,14.3,12.65,47.84626,-54.09684
2021-09-27 08:49:01+00:00,219.7681,14.3,12.65,47.84626,-54.09684
2021-09-27 08:59:01+00:00,221.2848,14.3,12.65,47.84626,-54.09684
2021-09-27 09:09:01+00:00,223.4364,14.3,12.65,47.84626,-54.09684
2021-09-27 09:19:00+00:00,229.933,14.3,12.65,47.84626,-54.09684
2021-09-27 09:29:00+00:00,235.8031,14.3,12.65,47.84626,-54.09684
2021-09-27 09:39:00+00:00,237.4648,14.3,12.65,47.84626,-54.09684
2021-09-27 09:49:00+00:00,240.3498,14.3,12.65,47.84626,-54.09684
2021-09-27 09:59:00+00:00,246.8881,14.3,12.65,47.84626,-54.09684
2021-09-27 10:09:00+00:00,251.2098,14.3,12.65,47.84626,-54.09684
2021-09-27 10:19:01+00:00,252.6931,14.3,12.65,47.84626,-54.09684
2021-09-27 10:29:01+00:00,256.0031,14.3,12.65,47.84626,-54.09684
2021-09-27 10:39:01+00:00,260.9348,14.3,12.65,47.84626,-54.09684
2021-09-27 10:49:01+00:00,262.0063,14.3,12.65,47.84626,-54.09684
2021-09-27 10:59:01+00:00,262.9947,14.3,12.65,47.84626,-54.09684
2021-09-27 11:09:01+00:00,265.8297,14.3,12.65,47.84626,-54.09684
2021-09-27 11:19:01+00:00,269.6764,14.3,12.65,47.84626,-54.09684
2021-09-27 11:29:01+00:00,268.6614,14.3,12.65,47.84626,-54.09684
2021-09-27 11:39:01+00:00,271.3847,14.3,12.65,47.84626,-54.09684
2021-09-27 11:49:01+00:00,273.7997,14.3,12.65,47.84626,-54.09684
2021-09-27 11:59:01+00:00,273.2947,14.3,12.65,47.84626,-54.09684
2021-09-27 12:09:01+00:00,272.7847,14.3,12.65,47.84626,-54.09684
2021-09-27 12:19:01+00:00,278.2314,14.3,12.65,47.84626,-54.09684
2021-09-27 12:29:01+00:00,284.288,14.3,12.65,47.84626,-54.09684
2021-09-27 12:39:01+00:00,286.988,14.3,12.65,47.84626,-54.09684
2021-09-27 12:49:01+00:00,289.3297,14.3,12.65,47.84626,-54.09684
2021-09-27 12:59:01+00:00,298.4497,14.3,12.65,47.84626,-54.09684
2021-09-27 13:09:01+00:00,308.063,14.3,12.65,47.84626,-54.09684
2021-09-27 13:19:01+00:00,312.818,14.3,12.65,47.84626,-54.09684
2021-09-27 13:29:01+00:00,316.148,14.3,12.65,47.84626,-54.09684
2021-09-27 13:39:01+00:00,324.408,14.3,12.65,47.84626,-54.09684
2021-09-27 13:49:01+00:00,328.9947,14.3,12.65,47.84626,-54.09684
2021-09-27 13:59:01+00:00,326.3747,14.3,12.65,47.84626,-54.09684
2021-09-27 14:09:01+00:00,329.4913,14.3,12.65,47.84626,-54.09684
2021-09-27 14:19:01+00:00,336.6246,14.3,12.73,47.84626,-54.09684
2021-09-27 14:29:01+00:00,336.3597,14.3,12.73,47.84626,-54.09684
2021-09-27 14:39:01+00:00,333.3513,14.3,12.73,47.84626,-54.09684
2021-09-27 14:49:01+00:00,338.4647,14.3,12.73,47.84626,-54.09684
2021-09-27 14:59:01+00:00,346.44300000000015,14.3,12.73,47.84626,-54.09684
2021-09-27 15:09:01+00:00,343.5196,14.3,12.73,47.84626,-54.09684
2021-09-27 15:19:01+00:00,341.023,14.3,12.97,47.84626,-54.09684
2021-09-27 15:29:01+00:00,344.6296,14.3,12.97,47.84626,-54.09684
2021-09-27 15:39:01+00:00,348.218,14.3,12.97,47.84626,-54.09684
2021-09-27 15:49:01+00:00,347.903,14.3,12.97,47.84626,-54.09684
2021-09-27 15:59:01+00:00,346.5197,14.3,12.97,47.84626,-54.09684
2021-09-27 16:09:01+00:00,345.4013,14.3,12.97,47.84626,-54.09684
2021-09-27 16:19:01+00:00,340.8297,14.3,13.13,47.84626,-54.09684
2021-09-27 16:29:01+00:00,341.5913,14.3,13.13,47.84626,-54.09684
2021-09-27 16:39:01+00:00,339.9863,14.3,13.13,47.84626,-54.09684
2021-09-27 16:49:01+00:00,334.4646,14.3,13.13,47.84626,-54.09684
2021-09-27 16:59:01+00:00,331.108,14.3,13.13,47.84626,-54.09684
2021-09-27 17:09:01+00:00,332.5013,14.3,13.13,47.84626,-54.09684
2021-09-27 17:19:01+00:00,328.7447,14.3,13.05,47.84626,-54.09684
2021-09-27 17:29:01+00:00,319.6713,14.3,13.05,47.84626,-54.09684
2021-09-27 17:39:01+00:00,317.4714,14.3,13.05,47.84626,-54.09684
2021-09-27 17:49:01+00:00,317.5096,14.3,13.05,47.84626,-54.09684
2021-09-27 17:59:01+00:00,309.4713,14.3,13.05,47.84626,-54.09684
2021-09-27 18:09:01+00:00,302.5814,14.3,13.05,47.84626,-54.09684
2021-09-27 18:19:00+00:00,299.6497,14.3,12.97,47.84626,-54.09684
2021-09-27 18:29:00+00:00,293.2347,14.3,12.97,47.84626,-54.09684
2021-09-27 18:39:00+00:00,286.6547,14.3,12.97,47.84626,-54.09684
2021-09-27 18:49:00+00:00,285.3247,14.3,12.97,47.84626,-54.09684
2021-09-27 18:59:00+00:00,282.3314,14.3,12.97,47.84626,-54.09684
2021-09-27 19:09:00+00:00,274.5348,14.3,12.97,47.84626,-54.09684
2021-09-27 19:19:01+00:00,267.8531,14.3,13.05,47.84626,-54.09684
2021-09-27 19:29:01+00:00,262.8881,14.3,13.05,47.84626,-54.09684
2021-09-27 19:39:01+00:00,254.1531,14.3,13.05,47.84626,-54.09684
2021-09-27 19:49:01+00:00,246.8898,14.3,13.05,47.84626,-54.09684
2021-09-27 19:59:01+00:00,242.6514,14.3,13.05,47.84626,-54.09684
2021-09-27 20:09:01+00:00,235.2915,14.35,13.05,47.84626,-54.09684
2021-09-27 20:19:01+00:00,228.2298,14.39,12.97,47.84626,-54.09684
2021-09-27 20:29:01+00:00,225.5881,14.4,12.97,47.84626,-54.09684
2021-09-27 20:39:01+00:00,224.0898,14.4,12.97,47.84626,-54.09684
2021-09-27 20:49:01+00:00,219.7481,14.4,12.97,47.84626,-54.09684
2021-09-27 20:59:01+00:00,215.5698,14.4,12.97,47.84626,-54.09684
2021-09-27 21:09:01+00:00,214.3531,14.4,12.97,47.84626,-54.09684
2021-09-27 21:19:01+00:00,216.0698,14.4,12.81,47.84626,-54.09684
2021-09-27 21:29:01+00:00,218.1181,14.4,12.81,47.84626,-54.09684
2021-09-27 21:39:01+00:00,222.1881,14.4,12.81,47.84626,-54.09684
2021-09-27 21:49:01+00:00,224.9331,14.4,12.81,47.84626,-54.09684
2021-09-27 21:59:01+00:00,225.8631,14.4,12.81,47.84626,-54.09684
2021-09-27 22:09:01+00:00,226.8481,14.4,12.81,47.84626,-54.09684
2021-09-27 22:19:01+00:00,229.9564,14.4,12.73,47.84626,-54.09684
2021-09-27 22:29:01+00:00,230.8948,14.4,12.73,47.84626,-54.09684
2021-09-27 22:39:01+00:00,231.8764,14.4,12.73,47.84626,-54.09684
2021-09-27 22:49:01+00:00,235.3648,14.4,12.73,47.84626,-54.09684
2021-09-27 22:59:01+00:00,238.6581,14.42,12.73,47.84626,-54.09684
2021-09-27 23:09:01+00:00,240.6098,14.42,12.73,47.84626,-54.09684
2021-09-27 23:19:01+00:00,241.7698,14.42,12.65,47.84626,-54.09684
2021-09-27 23:29:01+00:00,243.2914,14.41,12.65,47.84626,-54.09684
2021-09-27 23:39:01+00:00,244.5581,14.4,12.65,47.84626,-54.09684
2021-09-27 23:49:01+00:00,246.0448,14.4,12.65,47.84626,-54.09684
2021-09-27 23:59:01+00:00,246.5865,14.4,12.65,47.84626,-54.09684
